Grand Junction, CO

9:41 PM MDT on October 23, 2019 (GMT -0600)
Walker

Weather History for KGJT - March, 2019

Change the Weather History Date:

Saturday, March 2, 2019

  Actual Average Record
Temperature  
Mean Temperature 45 °F 40 °F  
Max Temperature 54 °F 52 °F 70 °F (1901)
Min Temperature 35 °F 29 °F 6 °F (2002)
Degree Days  
Heating Degree Days 20 25  
Month to date heating degree days 40 50  
Since 1 July heating degree days 4495 4429  
Cooling Degree Days 0 0  
Month to date cooling degree days 0 0  
Year to date cooling degree days 0 0  
Moisture  
Dew Point 36 °F    
Average Humidity 75    
Maximum Humidity 100    
Minimum Humidity 50    
Precipitation  
Precipitation 0.64 in 0.03 in 0.64 in (2019)
Month to date precipitation 0.68 0.05  
Year to date precipitation 2.12 1.17  
Snow  
Snow 0.00 in 0.10 in 5.00 in (1970)
Month to date snowfall 0.0 0.2  
Since 1 July snowfall 17.4 15.7  
Snow Depth 0.00 in    
Sea Level Pressure  
Sea Level Pressure 29.78 in    
Wind  
Wind Speed 5 mph (North)    
Max Wind Speed 15 mph    
Max Gust Speed 18 mph    
Visibility 8 miles    
Events Rain    
T = Trace of Precipitation, MM = Missing Value Source: NWS Daily Summary

Daily Weather History Graph

Daily Weather History Graph

Search for Another Location

Airport or City:

Astronomy

Mar. 02, 2019 Rise Set
Actual Time 6:45 AM MST 6:07 PM MST
Civil Twilight 6:18 AM MST 6:34 PM MST
Nautical Twilight 5:47 AM MST 7:05 PM MST
Astronomical Twilight 5:16 AM MST 7:36 PM MST
Moon 4:40 AM MST (3/2) 2:36 PM MST (3/2)
Length of Visible Light 12h 15m
Length of Day
11h 22m
Waning Crescent, 13% of the Moon is Illuminated
Mar 2
Waning Crescent
Mar 6
New
Mar 14
First Quarter
Mar 20
Full
Mar 27
Last Quarter

Hourly Weather History & Observations

Time (MST) Temp. Windchill Dew Point Humidity Pressure Visibility Wind Dir Wind Speed Gust Speed Precip Events Conditions
12:53 AM 48.9 °F - 32.0 °F 52% 29.78 in 10.0 mi Calm Calm - N/A   Scattered Clouds
1:53 AM 41.0 °F 38.0 °F 35.1 °F 79% 29.80 in 10.0 mi SW 4.6 mph - N/A   Mostly Cloudy
2:53 AM 41.0 °F 36.4 °F 37.0 °F 86% 29.81 in 10.0 mi ENE 6.9 mph - N/A   Overcast
3:53 AM 41.0 °F 39.0 °F 34.0 °F 76% 29.78 in 10.0 mi ENE 3.5 mph - N/A   Scattered Clouds
4:53 AM 39.9 °F 36.7 °F 35.1 °F 83% 29.81 in 10.0 mi NE 4.6 mph - N/A   Clear
5:53 AM 37.9 °F 33.5 °F 35.1 °F 89% 29.84 in 10.0 mi West 5.8 mph - N/A   Clear
6:53 AM 37.9 °F 35.5 °F 35.1 °F 89% 29.86 in 10.0 mi ENE 3.5 mph - N/A   Partly Cloudy
7:53 AM 41.0 °F 35.8 °F 36.0 °F 82% 29.86 in 10.0 mi East 8.1 mph - N/A   Mostly Cloudy
8:53 AM 46.9 °F - 37.0 °F 68% 29.84 in 10.0 mi East 6.9 mph - N/A   Mostly Cloudy
9:53 AM 51.1 °F - 35.1 °F 54% 29.82 in 10.0 mi Variable 3.5 mph - N/A   Partly Cloudy
10:53 AM 52.0 °F - 34.0 °F 50% 29.80 in 10.0 mi ESE 4.6 mph - N/A   Mostly Cloudy
11:53 AM 52.0 °F - 35.1 °F 53% 29.76 in 10.0 mi SSW 4.6 mph - N/A   Scattered Clouds
12:53 PM 53.1 °F - 35.1 °F 50% 29.70 in 10.0 mi Calm Calm - N/A   Mostly Cloudy
1:53 PM 52.0 °F - 37.9 °F 59% 29.69 in 10.0 mi WNW 10.4 mph - N/A   Overcast
2:53 PM 48.0 °F - 37.0 °F 66% 29.69 in 9.0 mi WNW 4.6 mph - 0.00 in Rain Light Rain
3:38 PM 46.0 °F - 39.9 °F 79% 29.77 in 2.5 mi Calm Calm - 0.05 in Rain Rain
3:42 PM 45.0 °F 43.5 °F 39.0 °F 80% 29.77 in 3.0 mi North 3.5 mph - 0.06 in Rain Rain
3:53 PM 44.1 °F - 39.9 °F 85% 29.72 in 4.0 mi Calm Calm - 0.08 in Rain Rain
4:53 PM 43.0 °F 40.3 °F 39.9 °F 89% 29.70 in 3.0 mi NNW 4.6 mph - 0.12 in Rain Rain
5:08 PM 42.1 °F 37.7 °F 39.9 °F 92% 29.74 in 2.5 mi NNW 6.9 mph - 0.05 in Rain Rain
5:48 PM 39.2 °F 31.2 °F 39.2 °F 100% 29.74 in 4.0 mi NNW 13.8 mph - 0.16 in Rain Light Rain
5:53 PM 39.9 °F 33.9 °F 39.0 °F 97% 29.72 in 4.0 mi NNW 9.2 mph - 0.17 in Rain Rain
6:53 PM 37.9 °F 30.5 °F 36.0 °F 93% 29.75 in 8.0 mi North 11.5 mph - 0.09 in Rain Light Rain
7:53 PM 36.0 °F 28.5 °F 34.0 °F 93% 29.76 in 6.0 mi North 10.4 mph - 0.11 in Rain Rain
8:53 PM 35.1 °F 28.6 °F 33.1 °F 92% 29.77 in 6.0 mi North 8.1 mph - 0.06 in Rain Light Rain
9:53 PM 36.0 °F 31.1 °F 34.0 °F 93% 29.78 in 10.0 mi NNE 5.8 mph - 0.01 in   Overcast
10:35 PM 37.0 °F 31.6 °F 34.0 °F 89% 29.85 in 10.0 mi North 6.9 mph - N/A   Overcast
10:53 PM 37.0 °F 32.4 °F 35.1 °F 93% 29.80 in 10.0 mi NNW 5.8 mph - N/A   Overcast
11:42 PM 36.0 °F 32.1 °F 35.1 °F 97% 29.87 in 10.0 mi WSW 4.6 mph - 0.00 in   Overcast
11:53 PM 36.0 °F 33.3 °F 35.1 °F 97% 29.83 in 10.0 mi SW 3.5 mph - 0.00 in   Overcast